Lid_Strength_Index
-0 -0 0 1 1 2 2 3 3 2 2 3 3 3 3 3 4 5 4 3 3 -3 -1 4 6 6 6 9 8 9 12 12 11 10 8 6 7 5 4 5 4 4 4 3 2
1 0 0 0 1 2 2 2 3 3 2 2 3 3 3 4 6 7 1 -1 -1 -1 4 5 7 6 9 9 9 11 12 9 7 7 8 6 7 6 5 6 6 5 3 2 2
2 1 1 1 0 2 2 2 2 3 2 2 3 3 3 4 8 7 -2 -1 -1 -1 4 4 4 8 10 10 10 10 11 6 6 5 5 7 7 5 6 7 6 6 5 3 3
2 2 2 1 1 1 1 2 2 3 3 3 3 3 4 6 11 6 -2 -2 -1 5 6 6 7 9 11 12 9 12 9 8 5 5 6 8 6 6 6 6 4 4 3 3 4
2 2 2 2 2 2 2 2 2 3 3 3 3 3 5 9 8 2 -2 -1 4 5 5 6 8 10 10 9 10 11 9 8 7 7 7 6 7 6 6 4 3 3 3 4 4
3 3 3 2 2 2 2 2 2 4 4 3 3 3 7 12 5 2 3 4 5 6 6 6 8 8 10 9 10 9 9 8 7 8 6 7 7 5 5 4 4 4 4 4 3
2 3 3 3 3 2 2 3 2 2 4 3 3 4 9 11 6 4 4 5 5 4 5 5 6 9 9 10 9 7 9 8 8 9 7 6 8 7 5 4 5 4 4 4 3
3 3 3 3 3 3 3 3 3 2 3 3 3 6 10 6 6 6 6 6 4 3 4 4 5 8 10 9 9 11 10 12 9 9 8 7 10 6 5 5 5 5 4 4 4
3 3 3 3 3 3 3 4 3 2 2 3 5 7 10 4 6 6 6 6 6 6 6 4 7 10 9 12 13 12 14 12 11 9 9 8 10 7 5 5 6 5 5 4 4
4 4 4 4 4 4 4 4 3 2 2 2 4 8 6 6 6 5 5 6 7 7 7 8 10 12 12 13 16 14 14 12 11 9 8 9 9 7 5 5 6 5 5 5 4
4 5 4 4 4 4 5 5 6 6 6 7 6 6 5 3 3 6 5 7 7 9 10 9 13 14 13 11 11 11 12 12 10 9 9 9 8 7 7 7 6 6 5 5 5
5 5 5 5 5 5 6 6 7 8 11 7 6 5 4 3 5 5 4 8 8 10 8 10 14 10 9 9 10 10 12 12 11 9 9 9 9 7 7 7 6 6 6 5 5
5 5 5 5 5 5 5 6 5 6 11 8 7 7 5 5 6 6 5 6 8 10 9 11 10 7 9 10 10 11 12 12 11 9 8 9 10 8 7 6 6 6 5 5 5
5 5 5 5 6 5 5 4 4 5 13 8 9 7 6 5 7 4 5 6 8 10 8 9 7 8 9 10 10 13 9 9 10 11 13 10 15 10 9 8 7 6 6 6 5
5 5 5 5 7 6 5 4 4 7 16 8 8 5 6 8 7 6 4 7 9 9 9 10 9 9 10 9 8 10 8 9 10 12 14 12 14 12 9 10 9 7 6 6 5
5 5 5 5 6 4 4 4 5 13 15 9 7 8 9 8 7 6 6 5 6 8 8 9 6 7 8 7 7 7 9 10 11 12 16 13 13 13 11 10 9 7 6 6 5
5 5 6 6 7 4 5 5 13 16 8 10 9 8 8 9 8 7 8 9 10 13 12 10 9 7 6 9 8 9 12 15 16 16 16 12 12 13 9 7 7 8 7 6 5
6 6 6 5 4 4 6 9 16 11 11 9 9 8 9 8 8 8 9 10 8 9 12 13 13 8 6 8 10 10 11 14 16 16 15 11 14 11 8 6 7 6 6 6 6
6 5 5 4 4 5 8 13 13 10 9 10 10 11 10 8 8 8 9 9 8 8 12 13 12 6 6 6 8 10 11 10 12 12 14 14 13 10 8 8 7 7 7 7 6
7 6 5 3 3 6 10 12 10 8 8 9 12 10 12 10 10 10 9 7 8 6 7 10 12 8 7 7 8 9 8 11 12 16 18 14 15 15 12 11 8 8 8 7 6
7 7 5 3 4 8 13 11 9 7 7 9 10 11 10 10 9 10 9 7 7 7 7 8 10 10 9 10 10 11 11 12 12 12 16 17 17 10 10 10 10 8 7 6 6
6 9 4 3 10 9 10 8 8 7 6 7 8 8 9 8 9 9 10 8 6 6 9 8 10 12 11 8 7 9 10 11 13 14 13 14 17 9 9 9 9 8 7 6 5
8 7 4 5 12 11 9 8 7 8 7 7 8 7 7 9 11 9 8 6 6 7 9 8 10 14 13 10 9 10 9 10 10 11 14 15 18 9 9 10 8 8 7 6 5
8 9 7 6 7 9 9 9 9 6 7 7 7 7 8 9 8 9 9 6 6 7 6 7 10 11 14 12 10 11 9 8 10 14 13 13 15 12 10 10 8 8 7 6 5
7 8 7 10 9 8 8 8 9 9 6 6 8 8 9 11 10 10 9 9 7 7 7 8 11 10 9 8 9 9 9 9 10 10 12 13 14 12 10 9 8 7 6 6 6
8 8 7 8 7 8 9 9 9 8 8 9 9 8 8 10 10 11 10 10 11 8 9 8 12 11 11 9 9 10 9 8 9 9 10 13 13 9 8 7 7 7 6 7 6
4 4 6 8 8 9 9 8 8 7 7 6 7 8 9 8 7 7 7 7 8 10 10 10 12 12 14 10 11 13 10 9 9 8 10 14 12 9 9 8 8 7 6 6 6